| time (UTC) | temp F | wind direction | speed MPH | gust MPH | rain 1hr in | rain 24hr in | rain mn in | humidity % | barometer mb |
| 20260506110004 | 66 | 169 | 9.0 | 17.0 | 0.00 | 6.53 | 0.00 | 65 | 1010.7 |
| 20260506105003 | 67 | 177 | 8.0 | 21.0 | 0.00 | 6.53 | 0.00 | 63 | 1010.8 |
| 20260506104106 | 65 | 210 | 7.0 | 14.0 | 0.00 | 6.53 | 0.00 | 67 | 1010.8 |
| 20260506103106 | 65 | 188 | 6.0 | 11.0 | 0.00 | 6.53 | 0.00 | 68 | 1010.8 |
| 20260506102004 | 66 | 196 | 6.0 | 16.0 | 0.00 | 6.53 | 0.00 | 66 | 1010.8 |
| 20260506101107 | 67 | 216 | 6.0 | 11.0 | 0.00 | 6.53 | 0.00 | 68 | 1010.9 |
| 20260506100106 | 66 | 185 | 6.0 | 22.0 | 0.00 | 6.53 | 0.00 | 68 | 1010.9 |
| 20260506095003 | 65 | 196 | 5.0 | 10.0 | 0.00 | 6.53 | 0.00 | 68 | 1011.0 |
| 20260506094106 | 66 | 193 | 7.0 | 17.0 | 0.00 | 6.53 | 0.00 | 68 | 1010.9 |
| 20260506093107 | 67 | 181 | 5.0 | 16.0 | 0.00 | 6.53 | 0.00 | 64 | 1010.8 |
| 20260506092106 | 68 | 243 | 4.0 | 11.0 | 0.00 | 6.53 | 0.00 | 66 | 1010.8 |
| 20260506091003 | 67 | 197 | 4.0 | 10.0 | 0.00 | 6.53 | 0.00 | 64 | 1010.8 |
| 20260506090003 | 67 | 252 | 3.0 | 10.0 | 0.00 | 6.53 | 0.00 | 66 | 1010.7 |
| 20260506085004 | 66 | 228 | 3.0 | 7.0 | 0.00 | 6.53 | 0.00 | 67 | 1010.6 |
| 20260506084003 | 64 | 221 | 4.0 | 8.0 | 0.00 | 6.53 | 0.00 | 72 | 1010.7 |
| 20260506083106 | 64 | 243 | 4.0 | 11.0 | 0.00 | 6.53 | 0.00 | 70 | 1010.6 |
| 20260506082003 | 64 | 307 | 2.0 | 8.0 | 0.00 | 6.53 | 0.00 | 72 | 1010.8 |
| 20260506081004 | 63 | 235 | 2.0 | 9.0 | 0.00 | 6.53 | 0.00 | 73 | 1011.0 |
| 20260506080107 | 62 | 188 | 3.0 | 7.0 | 0.00 | 6.53 | 0.00 | 74 | 1011.0 |
| 20260506073106 | 62 | 184 | 5.0 | 15.0 | 0.00 | 6.53 | 0.00 | 72 | 1011.0 |
| 20260506072107 | 63 | 191 | 4.0 | 10.0 | 0.00 | 6.53 | 0.00 | 71 | 1010.9 |
| 20260506071107 | 63 | 203 | 4.0 | 12.0 | 0.00 | 6.53 | 0.00 | 71 | 1010.9 |
| 20260506070106 | 63 | 222 | 4.0 | 6.0 | 0.00 | 6.53 | 0.00 | 70 | 1010.8 |
| 20260506062106 | 61 | 296 | 1.0 | 4.0 | 0.00 | 6.53 | 0.00 | 75 | 1010.7 |
| 20260506061003 | 60 | 260 | 1.0 | 4.0 | 0.00 | 6.53 | 0.00 | 77 | 1010.7 |
| 20260506051003 | 59 | 211 | 3.0 | 10.0 | 0.00 | 6.53 | 0.00 | 78 | 1010.6 |
| 20260506050106 | 59 | 224 | 1.0 | 7.0 | 0.00 | 0.00 | 0.00 | 79 | 1010.5 |
| 20260506045107 | 58 | 253 | 1.0 | 7.0 | 0.00 | 0.00 | 0.00 | 80 | 1010.4 |
| 20260506044004 | 58 | 251 | 1.0 | 6.0 | 0.00 | 0.00 | 0.00 | 81 | 1010.4 |
| 20260506043107 | 58 | 282 | 0.0 | 3.0 | 0.00 | 0.00 | 0.00 | 81 | 1010.4 |
| 20260506042003 | 58 | 283 | 0.0 | 6.0 | 0.00 | 0.00 | 0.00 | 82 | 1010.5 |
| 20260506041003 | 57 | 282 | 0.0 | 5.0 | 0.00 | 0.00 | 0.00 | 82 | 1010.4 |
| 20260506040107 | 57 | 289 | 0.0 | 5.0 | 0.00 | 0.00 | 0.00 | 82 | 1010.5 |
| 20260506035107 | 57 | 271 | 1.0 | 8.0 | 0.00 | 0.00 | 0.00 | 81 | 1010.4 |
| 20260506034003 | 58 | 237 | 1.0 | 5.0 | 0.00 | 0.00 | 0.00 | 81 | 1010.3 |
| 20260506033106 | 58 | 204 | 1.0 | 5.0 | 0.00 | 0.00 | 0.00 | 81 | 1010.3 |
| 20260506032004 | 58 | 195 | 2.0 | 7.0 | 0.00 | 0.00 | 0.00 | 81 | 1010.4 |
| 20260506031107 | 58 | 229 | 2.0 | 7.0 | 0.00 | 0.00 | 0.00 | 81 | 1010.4 |
| 20260506030107 | 58 | 210 | 4.0 | 10.0 | 0.00 | 0.00 | 0.00 | 81 | 1010.4 |
| 20260506025106 | 57 | 204 | 5.0 | 10.0 | 0.00 | 0.00 | 0.00 | 81 | 1010.4 |
| 20260506024106 | 57 | 206 | 3.0 | 10.0 | 0.00 | 0.00 | 0.00 | 82 | 1010.6 |
| 20260506023004 | 57 | 218 | 1.0 | 5.0 | 0.00 | 0.00 | 0.00 | 83 | 1010.8 |
| 20260506022003 | 57 | 271 | 0.0 | 2.0 | 0.00 | 0.00 | 0.00 | 83 | 1010.8 |
| 20260506021106 | 56 | 272 | 0.0 | 1.0 | 0.00 | 0.00 | 0.00 | 83 | 1010.7 |
| 20260506020004 | 56 | 0 | 0.0 | 0.0 | 0.00 | 0.00 | 0.00 | 83 | 1010.8 |
| 20260506015107 | 56 | 269 | 0.0 | 2.0 | 0.00 | 0.00 | 0.00 | 82 | 1010.8 |
| 20260506014003 | 57 | 259 | 0.0 | 1.0 | 0.00 | 0.00 | 0.00 | 82 | 1010.6 |
| 20260506013106 | 57 | 0 | 0.0 | 0.0 | 0.00 | 0.00 | 0.00 | 81 | 1010.6 |
| 20260506012004 | 57 | 258 | 0.0 | 1.0 | 0.00 | 0.00 | 0.00 | 81 | 1010.6 |
| 20260506011107 | 57 | 258 | 0.0 | 2.0 | 0.00 | 0.00 | 0.00 | 80 | 1010.6 |
| 20260506010003 | 57 | 258 | 0.0 | 1.0 | 0.00 | 0.00 | 0.00 | 80 | 1010.5 |
| 20260506005106 | 58 | 269 | 1.0 | 5.0 | 0.00 | 0.00 | 0.00 | 79 | 1010.6 |
| 20260506004004 | 58 | 240 | 2.0 | 7.0 | 0.00 | 0.00 | 0.00 | 79 | 1010.6 |
| 20260506003107 | 58 | 266 | 4.0 | 9.0 | 0.00 | 0.00 | 0.00 | 79 | 1010.4 |
| 20260506002106 | 58 | 258 | 6.0 | 11.0 | 0.00 | 0.00 | 0.00 | 79 | 1010.3 |
| 20260506001003 | 58 | 210 | 8.0 | 18.0 | 0.00 | 0.00 | 0.00 | 79 | 1010.1 |
| 20260506000004 | 58 | 216 | 6.0 | 15.0 | 0.00 | 0.00 | 0.00 | 79 | 1010.1 |
| 20260505235107 | 58 | 228 | 6.0 | 12.0 | 0.00 | 0.00 | 0.00 | 79 | 1010.2 |
| 20260505234106 | 58 | 220 | 5.0 | 14.0 | 0.00 | 0.00 | 0.00 | 79 | 1010.2 |
| 20260505233003 | 58 | 240 | 6.0 | 16.0 | 0.00 | 0.00 | 0.00 | 78 | 1010.1 |
| 20260505232004 | 58 | 218 | 6.0 | 17.0 | 0.00 | 0.00 | 0.00 | 79 | 1010.2 |
| 20260505231107 | 58 | 249 | 8.0 | 14.0 | 0.00 | 0.00 | 0.00 | 79 | 1010.3 |
| 20260505230107 | 58 | 261 | 9.0 | 19.0 | 0.00 | 0.00 | 0.00 | 79 | 1010.3 |
| 20260505225003 | 58 | 262 | 9.0 | 22.0 | 0.00 | 0.00 | 0.00 | 78 | 1009.9 |
| 20260505224003 | 58 | 239 | 10.0 | 19.0 | 0.00 | 0.00 | 0.00 | 78 | 1009.9 |
| 20260505223004 | 58 | 236 | 9.0 | 21.0 | 0.00 | 0.00 | 0.00 | 77 | 1009.9 |
| 20260505222004 | 58 | 215 | 10.0 | 20.0 | 0.00 | 0.00 | 0.00 | 78 | 1009.9 |
| 20260505221003 | 58 | 209 | 11.0 | 25.0 | 0.00 | 0.00 | 0.00 | 77 | 1009.7 |
| 20260505220151 | 59 | 210 | 8.0 | 23.0 | 0.00 | 0.00 | 0.00 | 77 | 1009.8 |
| 20260505215003 | 59 | 220 | 7.0 | 19.0 | 0.00 | 0.00 | 0.00 | 77 | 1010.3 |
| 20260505214107 | 59 | 207 | 6.0 | 14.0 | 0.00 | 0.00 | 0.00 | 78 | 1010.5 |
| 20260505213004 | 59 | 220 | 4.0 | 21.0 | 0.00 | 0.00 | 0.00 | 78 | 1010.8 |
| 20260505212107 | 58 | 254 | 4.0 | 10.0 | 0.00 | 0.00 | 0.00 | 79 | 1011.1 |
| 20260505211106 | 58 | 245 | 4.0 | 11.0 | 0.00 | 0.00 | 0.00 | 80 | 1011.1 |
| 20260505210106 | 58 | 246 | 3.0 | 9.0 | 0.00 | 0.00 | 0.00 | 80 | 1011.1 |
| 20260505205106 | 58 | 254 | 3.0 | 7.0 | 0.00 | 0.00 | 0.00 | 80 | 1011.3 |
| 20260505204004 | 58 | 255 | 2.0 | 8.0 | 0.00 | 0.00 | 0.00 | 80 | 1011.3 |
| 20260505203003 | 58 | 281 | 3.0 | 11.0 | 0.00 | 0.00 | 0.00 | 80 | 1011.3 |
| 20260505202003 | 58 | 238 | 3.0 | 8.0 | 0.00 | 0.00 | 0.00 | 79 | 1011.3 |
| 20260505201106 | 59 | 265 | 3.0 | 10.0 | 0.00 | 0.00 | 0.00 | 79 | 1011.3 |
| 20260505200106 | 59 | 260 | 3.0 | 8.0 | 0.00 | 0.00 | 0.00 | 78 | 1011.3 |
| 20260505195107 | 59 | 265 | 3.0 | 10.0 | 0.00 | 0.00 | 0.00 | 77 | 1011.4 |
| 20260505194004 | 59 | 218 | 3.0 | 7.0 | 0.00 | 0.00 | 0.00 | 76 | 1011.5 |
| 20260505193003 | 59 | 251 | 3.0 | 8.0 | 0.00 | 0.00 | 0.00 | 76 | 1011.4 |
| 20260505192106 | 59 | 232 | 4.0 | 11.0 | 0.00 | 0.00 | 0.00 | 76 | 1011.3 |
| 20260505191003 | 59 | 259 | 3.0 | 10.0 | 0.00 | 0.00 | 0.00 | 76 | 1011.3 |
| 20260505190003 | 59 | 255 | 2.0 | 10.0 | 0.00 | 0.00 | 0.00 | 75 | 1011.2 |
| 20260505185004 | 59 | 244 | 2.0 | 7.0 | 0.00 | 0.00 | 0.00 | 74 | 1011.1 |
| 20260505184107 | 59 | 273 | 3.0 | 8.0 | 0.00 | 0.00 | 0.00 | 73 | 1011.0 |
| 20260505183107 | 59 | 242 | 4.0 | 9.0 | 0.00 | 0.00 | 0.00 | 73 | 1011.0 |
| 20260505182003 | 60 | 255 | 4.0 | 8.0 | 0.00 | 0.00 | 0.00 | 72 | 1011.1 |
| 20260505181003 | 60 | 259 | 4.0 | 9.0 | 0.00 | 0.00 | 0.00 | 71 | 1011.0 |
| 20260505180106 | 60 | 258 | 4.0 | 12.0 | 0.00 | 0.00 | 0.00 | 70 | 1011.0 |
| 20260505175003 | 60 | 257 | 4.0 | 11.0 | 0.00 | 0.00 | 0.00 | 70 | 1011.1 |
| 20260505174004 | 60 | 261 | 3.0 | 14.0 | 0.00 | 0.00 | 0.00 | 69 | 1011.2 |
| 20260505173107 | 61 | 261 | 3.0 | 7.0 | 0.00 | 0.00 | 0.00 | 68 | 1011.2 |
| 20260505172107 | 61 | 213 | 3.0 | 9.0 | 0.00 | 0.00 | 0.00 | 67 | 1011.2 |
| 20260505171106 | 61 | 252 | 3.0 | 9.0 | 0.00 | 0.00 | 0.00 | 66 | 1011.2 |
| 20260505170106 | 62 | 252 | 3.0 | 7.0 | 0.00 | 0.00 | 0.00 | 66 | 1011.1 |
| 20260505165107 | 62 | 238 | 4.0 | 9.0 | 0.00 | 0.00 | 0.00 | 65 | 1011.3 |
| 20260505164107 | 62 | 261 | 4.0 | 12.0 | 0.00 | 0.00 | 0.00 | 64 | 1011.2 |
| 20260505163004 | 63 | 219 | 4.0 | 7.0 | 0.00 | 0.00 | 0.00 | 63 | 1011.2 |
| 20260505162107 | 63 | 263 | 4.0 | 12.0 | 0.00 | 0.00 | 0.00 | 63 | 1011.2 |
| 20260505161106 | 63 | 244 | 4.0 | 10.0 | 0.00 | 0.00 | 0.00 | 62 | 1011.3 |
| 20260505160106 | 63 | 245 | 4.0 | 11.0 | 0.00 | 0.00 | 0.00 | 62 | 1011.5 |
| 20260505153004 | 65 | 242 | 5.0 | 16.0 | 0.00 | 0.00 | 0.00 | 59 | 1011.3 |
| 20260505152107 | 65 | 245 | 5.0 | 12.0 | 0.00 | 0.00 | 0.00 | 59 | 1011.3 |
| 20260505151003 | 65 | 248 | 4.0 | 11.0 | 0.00 | 0.00 | 0.00 | 59 | 1011.3 |
| 20260505140106 | 68 | 208 | 6.0 | 17.0 | 0.00 | 0.00 | 0.00 | 53 | 1011.6 |
| 20260505130107 | 69 | 246 | 6.0 | 17.0 | 0.00 | 0.00 | 0.00 | 52 | 1011.9 |
| 20260505125003 | 68 | 252 | 5.0 | 11.0 | 0.00 | 0.00 | 0.00 | 54 | 1012.2 |
| 20260505124003 | 68 | 218 | 4.0 | 12.0 | 0.00 | 0.00 | 6.53 | 53 | 1012.3 |
| 20260505123106 | 68 | 222 | 6.0 | 15.0 | 0.00 | 0.00 | 6.53 | 54 | 1012.4 |
| 20260505122107 | 68 | 247 | 5.0 | 11.0 | 0.00 | 0.00 | 6.53 | 54 | 1012.4 |
| 20260505121003 | 66 | 257 | 6.0 | 14.0 | 6.53 | 0.00 | 6.53 | 55 | 1012.9 |
| 20260505120106 | 67 | 193 | 6.0 | 16.0 | 6.53 | 0.00 | 6.53 | 53 | 1012.6 |
| 20260505115106 | 67 | 204 | 9.0 | 15.0 | 6.53 | 0.00 | 6.53 | 50 | 1012.9 |
| 20260505114106 | 67 | 193 | 12.0 | 32.0 | 6.53 | 0.00 | 6.53 | 51 | 1012.6 |
| 20260505113004 | 67 | 185 | 11.0 | 24.0 | 6.53 | 0.00 | 6.53 | 50 | 1012.6 |
| 20260505112107 | 67 | 186 | 10.0 | 35.0 | 6.53 | 0.00 | 6.53 | 50 | 1012.6 |